User: anonymous   Login
Location: Altamira
(10.5079°N, 66.8544°W)
Time: 02:53:54
(UTC+00:00)
Language:

Tiangong - Orbit

View from above orbital plane
View from above orbital plane
View from above satellite
View from above satellite

Ground track
Ground track

The orbit data is extracted from the following two-line orbital elements,

1 48274U 21035A   24111.79762130  .00028291  00000-0  28871-3 0  9991
2 48274  41.4681  73.6739 0005914  45.0845 315.0474 15.64414921170112
Epoch (UTC): 20 April 2024 19:08:34
Eccentricity: 0.0005914
inclination: 41.4681°
perigee height: 371 km
apogee height: 379 km
right ascension of ascending node: 73.6739°
argument of perigee: 45.0845°
revolutions per day: 15.64414921
mean anomaly at epoch: 315.0474°
orbit number at epoch: 17011

The dashed part of the orbit path shows where the satellite is in the earth's shadow,  

DLR